カタログに戻る

HULIANWANG DIGUI-68

運用中通信PO
NORAD 65228·PAYLOAD·🇨🇳 China

打ち上げ Aug 17, 2025 から Taiyuan Satellite Launch Center

Loading…

次のパス (今後24時間)

TLE

最新Source: Space-Track

元期: Sep 14, 2026, 21:09 UTC

1 65228U 25178A   26257.88165476  .00000073  00000-0  13638-3 0  9997
2 65228  86.5041 343.2699 0001570 105.0086 255.1222 13.24413208 52181

AllMySatでHULIANWANG DIGUI-68をリアルタイム追跡

Download on the App Store